Time,TemperatureF,DewpointF,PressureIn,WindDirection,WindDirectionDegrees,WindSpeedMPH,WindSpeedGustMPH,Humidity,HourlyPrecipIn,Conditions,Clouds,dailyrainin,SoftwareType,DateUTC
2013-05-15 00:01:00,72.9,35.6,29.51,North,0,0.0,0.0,26,0.00,,,0.00,WUHU216HW,2013-05-15 05:01:00,
2013-05-15 00:06:00,72.9,37.7,29.51,North,0,0.0,0.0,28,0.00,,,0.00,WUHU216HW,2013-05-15 05:06:00,
2013-05-15 00:11:00,72.7,37.5,29.52,North,0,0.0,0.0,28,0.00,,,0.00,WUHU216HW,2013-05-15 05:11:00,
2013-05-15 00:16:00,72.5,38.4,29.52,North,0,0.0,0.0,29,0.00,,,0.00,WUHU216HW,2013-05-15 05:16:00,
2013-05-15 00:21:00,72.4,38.3,29.52,North,0,0.0,0.0,29,0.00,,,0.00,WUHU216HW,2013-05-15 05:21:00,
2013-05-15 00:26:00,72.2,38.1,29.53,North,0,0.0,0.0,29,0.00,,,0.00,WUHU216HW,2013-05-15 05:26:00,
2013-05-15 00:31:00,71.8,38.9,29.52,North,0,0.0,0.0,30,0.00,,,0.00,WUHU216HW,2013-05-15 05:31:00,
2013-05-15 00:36:00,71.5,38.5,29.53,North,0,0.0,0.0,30,0.00,,,0.00,WUHU216HW,2013-05-15 05:36:00,
2013-05-15 00:41:00,71.1,39.0,29.53,North,0,0.0,0.0,31,0.00,,,0.00,WUHU216HW,2013-05-15 05:41:00,
2013-05-15 00:46:00,70.7,38.6,29.54,North,0,0.0,0.0,31,0.00,,,0.00,WUHU216HW,2013-05-15 05:46:00,
2013-05-15 00:51:00,70.4,39.1,29.54,North,0,0.0,0.0,32,0.00,,,0.00,WUHU216HW,2013-05-15 05:51:00,
2013-05-15 00:56:00,70.2,39.6,29.54,North,0,0.0,0.0,33,0.00,,,0.00,WUHU216HW,2013-05-15 05:56:00,
2013-05-15 01:01:00,70.2,41.9,29.54,North,0,0.0,0.0,36,0.00,,,0.00,WUHU216HW,2013-05-15 06:01:00,
2013-05-15 01:06:00,70.2,43.3,29.54,North,0,0.0,0.0,38,0.00,,,0.00,WUHU216HW,2013-05-15 06:06:00,
2013-05-15 01:11:00,70.2,43.3,29.55,North,0,0.0,0.0,38,0.00,,,0.00,WUHU216HW,2013-05-15 06:11:00,
2013-05-15 01:16:00,70.0,43.1,29.55,North,0,0.0,0.0,38,0.00,,,0.00,WUHU216HW,2013-05-15 06:16:00,
2013-05-15 01:21:00,69.5,43.4,29.55,North,0,0.0,0.0,39,0.00,,,0.00,WUHU216HW,2013-05-15 06:21:00,
2013-05-15 01:26:00,69.1,43.1,29.55,North,0,0.0,0.0,39,0.00,,,0.00,WUHU216HW,2013-05-15 06:26:00,
2013-05-15 01:31:00,68.8,44.1,29.55,North,0,0.0,0.0,41,0.00,,,0.00,WUHU216HW,2013-05-15 06:31:00,
2013-05-15 01:36:00,68.4,44.4,29.56,North,0,0.0,0.0,42,0.00,,,0.00,WUHU216HW,2013-05-15 06:36:00,
2013-05-15 01:41:00,68.2,44.2,29.56,North,0,0.0,0.0,42,0.00,,,0.00,WUHU216HW,2013-05-15 06:41:00,
2013-05-15 01:46:00,67.9,43.8,29.56,North,0,0.0,0.0,42,0.00,,,0.00,WUHU216HW,2013-05-15 06:46:00,
2013-05-15 01:51:00,67.7,44.9,29.56,North,0,0.0,0.0,44,0.00,,,0.00,WUHU216HW,2013-05-15 06:51:00,
2013-05-15 01:56:00,67.5,44.1,29.56,North,0,0.0,0.0,43,0.00,,,0.00,WUHU216HW,2013-05-15 06:56:00,
2013-05-15 02:01:00,67.3,44.6,29.57,North,0,0.0,0.0,44,0.00,,,0.00,WUHU216HW,2013-05-15 07:01:00,
2013-05-15 02:06:00,67.1,44.4,29.57,North,0,0.0,0.0,44,0.00,,,0.00,WUHU216HW,2013-05-15 07:06:00,
2013-05-15 02:11:00,67.1,45.0,29.57,North,0,0.0,0.0,45,0.00,,,0.00,WUHU216HW,2013-05-15 07:11:00,
2013-05-15 02:16:00,67.1,45.0,29.57,North,0,0.0,0.0,45,0.00,,,0.00,WUHU216HW,2013-05-15 07:16:00,
2013-05-15 02:21:00,67.0,45.5,29.57,North,0,0.0,0.0,46,0.00,,,0.00,WUHU216HW,2013-05-15 07:21:00,
2013-05-15 02:26:00,66.6,45.1,29.58,North,0,0.0,0.0,46,0.00,,,0.00,WUHU216HW,2013-05-15 07:26:00,
2013-05-15 02:31:00,66.2,44.8,29.58,North,0,0.0,0.0,46,0.00,,,0.00,WUHU216HW,2013-05-15 07:31:00,
2013-05-15 02:36:00,65.9,45.0,29.58,North,0,0.0,0.0,47,0.00,,,0.00,WUHU216HW,2013-05-15 07:36:00,
2013-05-15 02:41:00,65.5,44.6,29.59,North,0,0.0,0.0,47,0.00,,,0.00,WUHU216HW,2013-05-15 07:41:00,
2013-05-15 02:46:00,65.2,44.9,29.59,North,0,0.0,0.0,48,0.00,,,0.00,WUHU216HW,2013-05-15 07:46:00,
2013-05-15 02:51:00,65.2,44.9,29.59,North,0,0.0,0.0,48,0.00,,,0.00,WUHU216HW,2013-05-15 07:51:00,
2013-05-15 02:56:00,64.8,44.6,29.59,North,0,0.0,0.0,48,0.00,,,0.00,WUHU216HW,2013-05-15 07:56:00,
2013-05-15 03:01:00,64.4,45.4,29.59,North,0,0.0,0.0,50,0.00,,,0.00,WUHU216HW,2013-05-15 08:01:00,
2013-05-15 03:06:00,64.4,45.8,29.59,North,0,0.0,0.0,51,0.00,,,0.00,WUHU216HW,2013-05-15 08:06:00,
2013-05-15 03:11:00,64.3,45.2,29.59,North,0,0.0,0.0,50,0.00,,,0.00,WUHU216HW,2013-05-15 08:11:00,
2013-05-15 03:16:00,64.3,45.7,29.59,North,0,0.0,0.0,51,0.00,,,0.00,WUHU216HW,2013-05-15 08:16:00,
2013-05-15 03:21:00,64.3,45.7,29.60,North,0,0.0,0.0,51,0.00,,,0.00,WUHU216HW,2013-05-15 08:21:00,
2013-05-15 03:26:00,64.3,45.7,29.60,North,0,0.0,0.0,51,0.00,,,0.00,WUHU216HW,2013-05-15 08:26:00,
2013-05-15 03:31:00,64.4,45.8,29.60,North,0,0.0,0.0,51,0.00,,,0.00,WUHU216HW,2013-05-15 08:31:00,
2013-05-15 03:36:00,64.1,46.0,29.60,North,0,0.0,0.0,52,0.00,,,0.00,WUHU216HW,2013-05-15 08:36:00,
2013-05-15 03:41:00,63.7,45.7,29.60,North,0,0.0,0.0,52,0.00,,,0.00,WUHU216HW,2013-05-15 08:41:00,
2013-05-15 03:46:00,63.5,46.0,29.60,North,0,0.0,0.0,53,0.00,,,0.00,WUHU216HW,2013-05-15 08:46:00,
2013-05-15 03:51:00,63.2,46.2,29.60,North,0,0.0,0.0,54,0.00,,,0.00,WUHU216HW,2013-05-15 08:51:00,
2013-05-15 03:56:00,63.0,46.0,29.61,North,0,0.0,0.0,54,0.00,,,0.00,WUHU216HW,2013-05-15 08:56:00,
2013-05-15 04:01:00,62.6,46.2,29.60,North,0,0.0,0.0,55,0.00,,,0.00,WUHU216HW,2013-05-15 09:01:00,
2013-05-15 04:06:00,62.5,46.0,29.60,North,0,0.0,0.0,55,0.00,,,0.00,WUHU216HW,2013-05-15 09:06:00,
2013-05-15 04:11:00,62.3,45.8,29.61,North,0,0.0,0.0,55,0.00,,,0.00,WUHU216HW,2013-05-15 09:11:00,
2013-05-15 04:16:00,62.3,45.8,29.62,North,0,0.0,0.0,55,0.00,,,0.00,WUHU216HW,2013-05-15 09:16:00,
2013-05-15 04:21:00,62.1,46.2,29.62,North,0,0.0,0.0,56,0.00,,,0.00,WUHU216HW,2013-05-15 09:21:00,
2013-05-15 04:26:00,61.9,46.0,29.62,North,0,0.0,0.0,56,0.00,,,0.00,WUHU216HW,2013-05-15 09:26:00,
2013-05-15 04:31:00,61.7,45.8,29.62,North,0,0.0,0.0,56,0.00,,,0.00,WUHU216HW,2013-05-15 09:31:00,
2013-05-15 04:36:00,61.6,46.2,29.62,North,0,0.0,0.0,57,0.00,,,0.00,WUHU216HW,2013-05-15 09:36:00,
2013-05-15 04:41:00,61.6,46.6,29.63,North,0,0.0,0.0,58,0.00,,,0.00,WUHU216HW,2013-05-15 09:41:00,
2013-05-15 04:46:00,61.6,46.2,29.63,North,0,0.0,0.0,57,0.00,,,0.00,WUHU216HW,2013-05-15 09:46:00,
2013-05-15 04:51:00,61.4,46.0,29.64,North,0,0.0,0.0,57,0.00,,,0.00,WUHU216HW,2013-05-15 09:51:00,
2013-05-15 04:56:00,61.0,45.7,29.64,North,0,0.0,0.0,57,0.00,,,0.00,WUHU216HW,2013-05-15 09:56:00,
2013-05-15 05:01:00,60.8,46.5,29.65,North,0,0.0,0.0,59,0.00,,,0.00,WUHU216HW,2013-05-15 10:01:00,
2013-05-15 05:06:00,60.7,45.8,29.66,North,0,0.0,0.0,58,0.00,,,0.00,WUHU216HW,2013-05-15 10:06:00,
2013-05-15 05:11:00,60.7,45.8,29.66,North,0,0.0,0.0,58,0.00,,,0.00,WUHU216HW,2013-05-15 10:11:00,
2013-05-15 05:16:00,60.5,45.6,29.66,North,0,0.0,0.0,58,0.00,,,0.00,WUHU216HW,2013-05-15 10:16:00,
2013-05-15 05:21:00,60.3,45.5,29.66,North,0,0.0,0.0,58,0.00,,,0.00,WUHU216HW,2013-05-15 10:21:00,
2013-05-15 05:26:00,60.1,45.3,29.66,North,0,0.0,0.0,58,0.00,,,0.00,WUHU216HW,2013-05-15 10:26:00,
2013-05-15 05:31:00,59.9,45.1,29.66,North,0,0.0,0.0,58,0.00,,,0.00,WUHU216HW,2013-05-15 10:31:00,
2013-05-15 05:36:00,59.8,45.5,29.66,North,0,0.0,0.0,59,0.00,,,0.00,WUHU216HW,2013-05-15 10:36:00,
2013-05-15 05:41:00,59.6,45.3,29.66,North,0,0.0,0.0,59,0.00,,,0.00,WUHU216HW,2013-05-15 10:41:00,
2013-05-15 05:46:00,59.4,45.5,29.66,North,0,0.0,0.0,60,0.00,,,0.00,WUHU216HW,2013-05-15 10:46:00,
2013-05-15 05:51:00,59.4,45.5,29.66,North,0,0.0,0.0,60,0.00,,,0.00,WUHU216HW,2013-05-15 10:51:00,
2013-05-15 05:56:00,59.2,45.4,29.66,North,0,0.0,0.0,60,0.00,,,0.00,WUHU216HW,2013-05-15 10:56:00,
2013-05-15 06:01:00,59.0,45.2,29.67,North,0,0.0,0.0,60,0.00,,,0.00,WUHU216HW,2013-05-15 11:01:00,
2013-05-15 06:06:00,58.9,45.0,29.67,North,0,0.0,0.0,60,0.00,,,0.00,WUHU216HW,2013-05-15 11:06:00,
2013-05-15 06:12:00,58.7,44.8,29.67,North,0,0.0,0.0,60,0.00,,,0.00,WUHU216HW,2013-05-15 11:12:00,
2013-05-15 06:17:00,58.3,44.6,29.68,North,0,0.0,0.0,60,0.00,,,0.00,WUHU216HW,2013-05-15 11:17:00,
2013-05-15 06:22:00,58.3,44.6,29.69,North,0,0.0,0.0,60,0.00,,,0.00,WUHU216HW,2013-05-15 11:22:00,
2013-05-15 06:27:00,58.3,44.6,29.69,North,0,0.0,0.0,60,0.00,,,0.00,WUHU216HW,2013-05-15 11:27:00,
2013-05-15 06:33:00,58.3,44.6,29.70,North,0,0.0,0.0,60,0.00,,,0.00,WUHU216HW,2013-05-15 11:33:00,
2013-05-15 06:38:00,58.3,44.6,29.70,North,0,0.0,0.0,60,0.00,,,0.00,WUHU216HW,2013-05-15 11:38:00,
2013-05-15 06:43:00,58.3,44.6,29.71,North,0,0.0,0.0,60,0.00,,,0.00,WUHU216HW,2013-05-15 11:43:00,
2013-05-15 06:48:00,58.1,44.4,29.71,North,0,0.0,0.0,60,0.00,,,0.00,WUHU216HW,2013-05-15 11:48:00,
2013-05-15 06:53:00,58.3,44.6,29.71,North,0,0.0,0.0,60,0.00,,,0.00,WUHU216HW,2013-05-15 11:53:00,
2013-05-15 06:58:00,58.5,44.7,29.71,North,0,0.0,0.0,60,0.00,,,0.00,WUHU216HW,2013-05-15 11:58:00,
2013-05-15 07:03:00,58.7,44.4,29.71,North,0,0.0,0.0,59,0.00,,,0.00,WUHU216HW,2013-05-15 12:03:00,
2013-05-15 07:08:00,58.7,44.4,29.71,North,0,0.0,0.0,59,0.00,,,0.00,WUHU216HW,2013-05-15 12:08:00,
2013-05-15 07:13:00,58.9,44.1,29.72,North,0,0.0,0.0,58,0.00,,,0.00,WUHU216HW,2013-05-15 12:13:00,
2013-05-15 07:19:00,59.0,44.7,29.72,North,0,0.0,0.0,59,0.00,,,0.00,WUHU216HW,2013-05-15 12:19:00,
2013-05-15 07:24:00,59.2,44.9,29.72,North,0,0.0,0.0,59,0.00,,,0.00,WUHU216HW,2013-05-15 12:24:00,
2013-05-15 07:29:00,59.4,45.1,29.72,North,0,0.0,0.0,59,0.00,,,0.00,WUHU216HW,2013-05-15 12:29:00,
2013-05-15 07:34:00,59.4,44.7,29.72,North,0,0.0,0.0,58,0.00,,,0.00,WUHU216HW,2013-05-15 12:34:00,
2013-05-15 07:39:00,59.6,45.3,29.72,North,0,0.0,0.0,59,0.00,,,0.00,WUHU216HW,2013-05-15 12:39:00,
2013-05-15 07:44:00,59.8,44.9,29.72,North,0,0.0,0.0,58,0.00,,,0.00,WUHU216HW,2013-05-15 12:44:00,
2013-05-15 07:49:00,59.9,45.1,29.72,North,0,0.0,0.0,58,0.00,,,0.00,WUHU216HW,2013-05-15 12:49:00,
2013-05-15 07:54:00,60.1,44.8,29.71,North,0,0.0,0.0,57,0.00,,,0.00,WUHU216HW,2013-05-15 12:54:00,
2013-05-15 07:59:00,60.7,44.8,29.70,North,0,0.0,0.0,56,0.00,,,0.00,WUHU216HW,2013-05-15 12:59:00,
2013-05-15 08:05:00,60.8,44.1,29.72,North,0,0.0,0.0,54,0.00,,,0.00,WUHU216HW,2013-05-15 13:05:00,
2013-05-15 08:10:00,61.2,43.9,29.73,North,0,0.0,0.0,53,0.00,,,0.00,WUHU216HW,2013-05-15 13:10:00,
2013-05-15 08:15:00,61.4,44.1,29.74,North,0,0.0,0.0,53,0.00,,,0.00,WUHU216HW,2013-05-15 13:15:00,
2013-05-15 08:20:00,61.6,43.7,29.75,North,0,0.0,0.0,52,0.00,,,0.00,WUHU216HW,2013-05-15 13:20:00,
2013-05-15 08:25:00,61.9,43.6,29.75,North,0,0.0,0.0,51,0.00,,,0.00,WUHU216HW,2013-05-15 13:25:00,
2013-05-15 08:30:00,62.3,43.4,29.75,North,0,0.0,0.0,50,0.00,,,0.00,WUHU216HW,2013-05-15 13:30:00,
2013-05-15 08:36:00,62.8,43.3,29.75,North,0,0.0,0.0,49,0.00,,,0.00,WUHU216HW,2013-05-15 13:36:00,
2013-05-15 08:41:00,63.0,42.9,29.75,North,0,0.0,0.0,48,0.00,,,0.00,WUHU216HW,2013-05-15 13:41:00,
2013-05-15 08:46:00,63.0,43.5,29.76,North,0,0.0,0.0,49,0.00,,,0.00,WUHU216HW,2013-05-15 13:46:00,
2013-05-15 08:51:00,63.2,43.1,29.75,North,0,0.0,0.0,48,0.00,,,0.00,WUHU216HW,2013-05-15 13:51:00,
2013-05-15 08:56:00,63.4,43.8,29.75,North,0,0.0,0.0,49,0.00,,,0.00,WUHU216HW,2013-05-15 13:56:00,
2013-05-15 09:01:00,63.7,43.6,29.75,North,0,0.0,0.0,48,0.00,,,0.00,WUHU216HW,2013-05-15 14:01:00,
2013-05-15 09:06:00,64.1,43.3,29.75,North,0,0.0,0.0,47,0.00,,,0.00,WUHU216HW,2013-05-15 14:06:00,
2013-05-15 09:11:00,64.3,43.5,29.75,North,0,0.0,0.0,47,0.00,,,0.00,WUHU216HW,2013-05-15 14:11:00,
2013-05-15 09:16:00,64.4,43.0,29.74,North,0,0.0,0.0,46,0.00,,,0.00,WUHU216HW,2013-05-15 14:16:00,
2013-05-15 09:22:00,64.6,43.2,29.74,North,0,0.0,0.0,46,0.00,,,0.00,WUHU216HW,2013-05-15 14:22:00,
2013-05-15 09:27:00,65.2,43.2,29.74,North,0,0.0,0.0,45,0.00,,,0.00,WUHU216HW,2013-05-15 14:27:00,
2013-05-15 09:32:00,65.3,42.8,29.74,North,0,0.0,0.0,44,0.00,,,0.00,WUHU216HW,2013-05-15 14:32:00,
2013-05-15 09:37:00,65.7,43.1,29.72,North,0,0.0,0.0,44,0.00,,,0.00,WUHU216HW,2013-05-15 14:37:00,
2013-05-15 09:42:00,65.9,42.7,29.73,North,0,0.0,0.0,43,0.00,,,0.00,WUHU216HW,2013-05-15 14:42:00,
2013-05-15 09:47:00,66.1,42.9,29.74,North,0,0.0,0.0,43,0.00,,,0.00,WUHU216HW,2013-05-15 14:47:00,
2013-05-15 09:52:00,66.2,41.9,29.75,North,0,0.0,0.0,41,0.00,,,0.00,WUHU216HW,2013-05-15 14:52:00,
2013-05-15 09:57:00,66.6,42.1,29.75,North,0,0.0,0.0,41,0.00,,,0.00,WUHU216HW,2013-05-15 14:57:00,
2013-05-15 10:02:00,66.8,40.2,29.74,North,0,0.0,0.0,38,0.00,,,0.00,WUHU216HW,2013-05-15 15:02:00,
2013-05-15 10:08:00,66.6,40.9,29.74,North,0,0.0,0.0,39,0.00,,,0.00,WUHU216HW,2013-05-15 15:08:00,
2013-05-15 10:13:00,66.8,41.0,29.74,North,0,0.0,0.0,39,0.00,,,0.00,WUHU216HW,2013-05-15 15:13:00,
2013-05-15 10:18:00,67.1,41.3,29.74,North,0,0.0,0.0,39,0.00,,,0.00,WUHU216HW,2013-05-15 15:18:00,
2013-05-15 10:23:00,67.3,41.5,29.74,North,0,0.0,0.0,39,0.00,,,0.00,WUHU216HW,2013-05-15 15:23:00,
2013-05-15 10:28:00,67.7,41.8,29.75,North,0,0.0,0.0,39,0.00,,,0.00,WUHU216HW,2013-05-15 15:28:00,
2013-05-15 10:34:00,67.7,41.8,29.75,North,0,0.0,0.0,39,0.00,,,0.00,WUHU216HW,2013-05-15 15:34:00,
2013-05-15 10:39:00,67.7,41.8,29.76,North,0,0.0,0.0,39,0.00,,,0.00,WUHU216HW,2013-05-15 15:39:00,
2013-05-15 10:44:00,68.4,42.4,29.76,North,0,0.0,0.0,39,0.00,,,0.00,WUHU216HW,2013-05-15 15:44:00,
2013-05-15 10:49:00,68.8,42.0,29.76,North,0,0.0,0.0,38,0.00,,,0.00,WUHU216HW,2013-05-15 15:49:00,
2013-05-15 10:54:00,69.3,43.2,29.75,North,0,0.0,0.0,39,0.00,,,0.00,WUHU216HW,2013-05-15 15:54:00,
2013-05-15 10:59:00,70.2,42.6,29.76,North,0,0.0,0.0,37,0.00,,,0.00,WUHU216HW,2013-05-15 15:59:00,
2013-05-15 11:04:00,70.6,42.9,29.75,North,0,0.0,0.0,37,0.00,,,0.00,WUHU216HW,2013-05-15 16:04:00,
2013-05-15 11:10:00,71.1,43.4,29.75,North,0,0.0,0.0,37,0.00,,,0.00,WUHU216HW,2013-05-15 16:10:00,
2013-05-15 11:15:00,71.6,42.4,29.76,North,0,0.0,0.0,35,0.00,,,0.00,WUHU216HW,2013-05-15 16:15:00,
2013-05-15 11:20:00,71.3,42.9,29.76,North,0,0.0,0.0,36,0.00,,,0.00,WUHU216HW,2013-05-15 16:20:00,
2013-05-15 11:25:00,71.5,42.2,29.75,North,0,0.0,0.0,35,0.00,,,0.00,WUHU216HW,2013-05-15 16:25:00,
2013-05-15 11:30:00,71.6,41.7,29.76,North,0,0.0,0.0,34,0.00,,,0.00,WUHU216HW,2013-05-15 16:30:00,
2013-05-15 11:36:00,71.6,41.7,29.76,North,0,0.0,0.0,34,0.00,,,0.00,WUHU216HW,2013-05-15 16:36:00,
2013-05-15 11:41:00,72.0,41.9,29.76,North,0,0.0,0.0,34,0.00,,,0.00,WUHU216HW,2013-05-15 16:41:00,
2013-05-15 11:46:00,72.2,41.4,29.76,North,0,0.0,0.0,33,0.00,,,0.00,WUHU216HW,2013-05-15 16:46:00,
2013-05-15 11:51:00,71.8,41.8,29.75,North,0,0.0,0.0,34,0.00,,,0.00,WUHU216HW,2013-05-15 16:51:00,
2013-05-15 11:57:00,72.0,41.9,29.75,North,0,0.0,0.0,34,0.00,,,0.00,WUHU216HW,2013-05-15 16:57:00,
2013-05-15 12:02:00,71.6,41.0,29.75,North,0,0.0,0.0,33,0.00,,,0.00,WUHU216HW,2013-05-15 17:02:00,
2013-05-15 12:07:00,70.6,40.7,29.76,North,0,0.0,0.0,34,0.00,,,0.00,WUHU216HW,2013-05-15 17:07:00,
2013-05-15 12:12:00,70.2,41.1,29.76,North,0,0.0,0.0,35,0.00,,,0.00,WUHU216HW,2013-05-15 17:12:00,
2013-05-15 12:17:00,70.2,41.1,29.76,North,0,0.0,0.0,35,0.00,,,0.00,WUHU216HW,2013-05-15 17:17:00,
2013-05-15 12:22:00,70.4,41.2,29.75,North,0,0.0,0.0,35,0.00,,,0.00,WUHU216HW,2013-05-15 17:22:00,
2013-05-15 12:27:00,70.2,41.1,29.76,North,0,0.0,0.0,35,0.00,,,0.00,WUHU216HW,2013-05-15 17:27:00,
2013-05-15 12:33:00,69.8,40.8,29.76,North,0,0.0,0.0,35,0.00,,,0.00,WUHU216HW,2013-05-15 17:33:00,
2013-05-15 12:38:00,69.7,40.6,29.77,North,0,0.0,0.0,35,0.00,,,0.00,WUHU216HW,2013-05-15 17:38:00,
2013-05-15 12:43:00,69.5,42.0,29.78,North,0,0.0,0.0,37,0.00,,,0.00,WUHU216HW,2013-05-15 17:43:00,
2013-05-15 12:48:00,69.1,43.1,29.79,North,0,0.0,0.0,39,0.00,,,0.00,WUHU216HW,2013-05-15 17:48:00,
2013-05-15 12:52:00,68.8,43.5,29.78,North,0,0.0,0.0,40,0.00,,,0.00,WUHU216HW,2013-05-15 17:52:00,
2013-05-15 12:58:00,68.6,43.3,29.78,North,0,0.0,0.0,40,0.00,,,0.00,WUHU216HW,2013-05-15 17:58:00,
2013-05-15 13:03:00,67.1,45.0,29.76,North,0,0.0,0.0,45,0.00,,,0.00,WUHU216HW,2013-05-15 18:03:00,
2013-05-15 13:08:00,66.2,45.4,29.75,North,0,0.0,0.0,47,0.00,,,0.00,WUHU216HW,2013-05-15 18:08:00,
2013-05-15 13:14:00,65.2,46.5,29.76,North,0,0.0,0.0,51,0.00,,,0.00,WUHU216HW,2013-05-15 18:14:00,
2013-05-15 13:19:00,64.1,46.0,29.76,North,0,0.0,0.0,52,0.01,,,0.01,WUHU216HW,2013-05-15 18:19:00,
2013-05-15 13:24:00,64.1,45.0,29.76,North,0,0.0,0.0,50,0.01,,,0.01,WUHU216HW,2013-05-15 18:24:00,
2013-05-15 13:29:00,64.3,44.7,29.75,North,0,0.0,0.0,49,0.01,,,0.01,WUHU216HW,2013-05-15 18:29:00,
2013-05-15 13:34:00,64.6,45.5,29.75,North,0,0.0,0.0,50,0.01,,,0.01,WUHU216HW,2013-05-15 18:34:00,
2013-05-15 13:39:00,64.8,47.7,29.75,North,0,0.0,0.0,54,0.01,,,0.01,WUHU216HW,2013-05-15 18:39:00,
2013-05-15 13:45:00,64.1,48.0,29.76,North,0,0.0,0.0,56,0.01,,,0.01,WUHU216HW,2013-05-15 18:45:00,
2013-05-15 13:50:00,64.1,47.4,29.76,North,0,0.0,0.0,55,0.01,,,0.01,WUHU216HW,2013-05-15 18:50:00,
2013-05-15 13:55:00,65.3,46.3,29.76,North,0,0.0,0.0,50,0.01,,,0.01,WUHU216HW,2013-05-15 18:55:00,
2013-05-15 14:00:00,66.2,46.5,29.76,North,0,0.0,0.0,49,0.01,,,0.01,WUHU216HW,2013-05-15 19:00:00,
2013-05-15 14:06:00,66.6,46.9,29.75,North,0,0.0,0.0,49,0.01,,,0.01,WUHU216HW,2013-05-15 19:06:00,
2013-05-15 14:11:00,67.3,47.5,29.75,North,0,0.0,0.0,49,0.01,,,0.01,WUHU216HW,2013-05-15 19:11:00,
2013-05-15 14:16:00,68.6,46.3,29.75,North,0,0.0,0.0,45,0.00,,,0.01,WUHU216HW,2013-05-15 19:16:00,
2013-05-15 14:21:00,69.8,48.6,29.74,North,0,0.0,0.0,47,0.00,,,0.01,WUHU216HW,2013-05-15 19:21:00,
2013-05-15 14:26:00,70.9,47.8,29.74,North,0,0.0,0.0,44,0.00,,,0.01,WUHU216HW,2013-05-15 19:26:00,
2013-05-15 14:31:00,71.6,47.3,29.73,North,0,0.0,0.0,42,0.00,,,0.01,WUHU216HW,2013-05-15 19:31:00,
2013-05-15 14:36:00,73.1,48.0,29.73,North,0,0.0,0.0,41,0.00,,,0.01,WUHU216HW,2013-05-15 19:36:00,
2013-05-15 14:42:00,73.4,47.7,29.73,North,0,0.0,0.0,40,0.00,,,0.01,WUHU216HW,2013-05-15 19:42:00,
2013-05-15 14:47:00,73.1,47.3,29.73,North,0,0.0,0.0,40,0.00,,,0.01,WUHU216HW,2013-05-15 19:47:00,
2013-05-15 14:53:00,72.9,47.3,29.73,North,0,0.0,0.0,40,0.00,,,0.01,WUHU216HW,2013-05-15 19:53:00,
2013-05-15 14:58:00,73.1,48.0,29.73,North,0,0.0,0.0,41,0.00,,,0.01,WUHU216HW,2013-05-15 19:58:00,
2013-05-15 15:03:00,74.2,47.6,29.73,North,0,0.0,0.0,39,0.00,,,0.01,WUHU216HW,2013-05-15 20:03:00,
2013-05-15 15:08:00,74.0,45.9,29.73,North,0,0.0,0.0,37,0.00,,,0.01,WUHU216HW,2013-05-15 20:08:00,
2013-05-15 15:13:00,74.2,46.8,29.72,North,0,0.0,0.0,38,0.00,,,0.01,WUHU216HW,2013-05-15 20:13:00,
2013-05-15 15:19:00,76.0,47.7,29.72,North,0,0.0,0.0,37,0.00,,,0.01,WUHU216HW,2013-05-15 20:19:00,
2013-05-15 15:24:00,76.3,48.1,29.72,North,0,0.0,0.0,37,0.00,,,0.01,WUHU216HW,2013-05-15 20:24:00,
2013-05-15 15:30:00,76.5,48.2,29.72,North,0,0.0,0.0,37,0.00,,,0.01,WUHU216HW,2013-05-15 20:30:00,
2013-05-15 15:35:00,75.2,46.3,29.71,North,0,0.0,0.0,36,0.00,,,0.01,WUHU216HW,2013-05-15 20:35:00,
2013-05-15 15:40:00,74.5,47.2,29.72,North,0,0.0,0.0,38,0.00,,,0.01,WUHU216HW,2013-05-15 20:40:00,
2013-05-15 15:45:00,74.5,47.2,29.72,North,0,0.0,0.0,38,0.00,,,0.01,WUHU216HW,2013-05-15 20:45:00,
2013-05-15 15:50:00,74.9,46.7,29.71,North,0,0.0,0.0,37,0.00,,,0.01,WUHU216HW,2013-05-15 20:50:00,
2013-05-15 15:56:00,75.2,45.5,29.71,North,0,0.0,0.0,35,0.00,,,0.01,WUHU216HW,2013-05-15 20:56:00,
2013-05-15 16:01:00,75.2,45.5,29.71,North,0,0.0,0.0,35,0.00,,,0.01,WUHU216HW,2013-05-15 21:01:00,
2013-05-15 16:06:00,77.4,46.7,29.71,North,0,0.0,0.0,34,0.00,,,0.01,WUHU216HW,2013-05-15 21:06:00,
2013-05-15 16:11:00,77.6,46.9,29.70,North,0,0.0,0.0,34,0.00,,,0.01,WUHU216HW,2013-05-15 21:11:00,
2013-05-15 16:16:00,76.7,46.1,29.70,North,0,0.0,0.0,34,0.00,,,0.01,WUHU216HW,2013-05-15 21:16:00,
2013-05-15 16:21:00,76.1,46.4,29.70,North,0,0.0,0.0,35,0.00,,,0.01,WUHU216HW,2013-05-15 21:21:00,
2013-05-15 16:26:00,76.1,46.4,29.70,North,0,0.0,0.0,35,0.00,,,0.01,WUHU216HW,2013-05-15 21:26:00,
2013-05-15 16:31:00,76.3,46.5,29.70,North,0,0.0,0.0,35,0.00,,,0.01,WUHU216HW,2013-05-15 21:31:00,
2013-05-15 16:36:00,76.7,46.8,29.70,North,0,0.0,0.0,35,0.00,,,0.01,WUHU216HW,2013-05-15 21:36:00,
2013-05-15 16:42:00,76.9,47.0,29.70,North,0,0.0,0.0,35,0.00,,,0.01,WUHU216HW,2013-05-15 21:42:00,
2013-05-15 16:47:00,77.4,46.7,29.70,North,0,0.0,0.0,34,0.00,,,0.01,WUHU216HW,2013-05-15 21:47:00,
2013-05-15 16:52:00,76.9,46.3,29.70,North,0,0.0,0.0,34,0.00,,,0.01,WUHU216HW,2013-05-15 21:52:00,
2013-05-15 16:57:00,76.9,46.3,29.70,North,0,0.0,0.0,34,0.00,,,0.01,WUHU216HW,2013-05-15 21:57:00,
2013-05-15 17:02:00,77.0,46.5,29.70,North,0,0.0,0.0,34,0.00,,,0.01,WUHU216HW,2013-05-15 22:02:00,
2013-05-15 17:07:00,77.2,46.5,29.70,North,0,0.0,0.0,34,0.00,,,0.01,WUHU216HW,2013-05-15 22:07:00,
2013-05-15 17:12:00,77.4,46.7,29.70,North,0,0.0,0.0,34,0.00,,,0.01,WUHU216HW,2013-05-15 22:12:00,
2013-05-15 17:17:00,77.4,46.7,29.70,North,0,0.0,0.0,34,0.00,,,0.01,WUHU216HW,2013-05-15 22:17:00,
2013-05-15 17:22:00,78.1,47.4,29.70,North,0,0.0,0.0,34,0.00,,,0.01,WUHU216HW,2013-05-15 22:22:00,
2013-05-15 17:27:00,77.8,46.3,29.70,North,0,0.0,0.0,33,0.00,,,0.01,WUHU216HW,2013-05-15 22:27:00,
2013-05-15 17:32:00,77.8,46.3,29.70,North,0,0.0,0.0,33,0.00,,,0.01,WUHU216HW,2013-05-15 22:32:00,
2013-05-15 17:37:00,77.4,46.7,29.70,North,0,0.0,0.0,34,0.00,,,0.01,WUHU216HW,2013-05-15 22:37:00,
2013-05-15 17:42:00,77.8,47.0,29.70,North,0,0.0,0.0,34,0.00,,,0.01,WUHU216HW,2013-05-15 22:42:00,
2013-05-15 17:47:00,78.1,47.4,29.70,North,0,0.0,0.0,34,0.00,,,0.01,WUHU216HW,2013-05-15 22:47:00,
2013-05-15 17:53:00,78.7,47.0,29.70,North,0,0.0,0.0,33,0.00,,,0.01,WUHU216HW,2013-05-15 22:53:00,
2013-05-15 17:58:00,79.2,47.4,29.70,North,0,0.0,0.0,33,0.00,,,0.01,WUHU216HW,2013-05-15 22:58:00,
2013-05-15 18:03:00,79.2,46.7,29.70,North,0,0.0,0.0,32,0.00,,,0.01,WUHU216HW,2013-05-15 23:03:00,
2013-05-15 18:08:00,77.8,46.3,29.69,North,0,0.0,0.0,33,0.00,,,0.01,WUHU216HW,2013-05-15 23:08:00,
2013-05-15 18:13:00,77.8,47.0,29.69,North,0,0.0,0.0,34,0.00,,,0.01,WUHU216HW,2013-05-15 23:13:00,
2013-05-15 18:18:00,78.8,47.9,29.69,North,0,0.0,0.0,34,0.00,,,0.01,WUHU216HW,2013-05-15 23:18:00,
2013-05-15 18:23:00,79.2,46.7,29.69,North,0,0.0,0.0,32,0.00,,,0.01,WUHU216HW,2013-05-15 23:23:00,
2013-05-15 18:28:00,78.5,46.8,29.69,North,0,0.0,0.0,33,0.00,,,0.01,WUHU216HW,2013-05-15 23:28:00,
2013-05-15 18:33:00,78.8,47.2,29.70,North,0,0.0,0.0,33,0.00,,,0.01,WUHU216HW,2013-05-15 23:33:00,
2013-05-15 18:39:00,78.8,46.4,29.70,North,0,0.0,0.0,32,0.00,,,0.01,WUHU216HW,2013-05-15 23:39:00,
2013-05-15 18:44:00,79.2,46.7,29.70,North,0,0.0,0.0,32,0.00,,,0.01,WUHU216HW,2013-05-15 23:44:00,
2013-05-15 18:49:00,79.2,46.7,29.70,North,0,0.0,0.0,32,0.00,,,0.01,WUHU216HW,2013-05-15 23:49:00,
2013-05-15 18:54:00,79.0,46.5,29.69,North,0,0.0,0.0,32,0.00,,,0.01,WUHU216HW,2013-05-15 23:54:00,
2013-05-15 18:59:00,79.0,46.5,29.69,North,0,0.0,0.0,32,0.00,,,0.01,WUHU216HW,2013-05-15 23:59:00,
2013-05-15 19:04:00,78.1,46.5,29.69,North,0,0.0,0.0,33,0.00,,,0.01,WUHU216HW,2013-05-16 00:04:00,
2013-05-15 19:09:00,78.1,46.5,29.69,North,0,0.0,0.0,33,0.00,,,0.01,WUHU216HW,2013-05-16 00:09:00,
2013-05-15 19:15:00,78.3,46.7,29.69,North,0,0.0,0.0,33,0.00,,,0.01,WUHU216HW,2013-05-16 00:15:00,
2013-05-15 19:20:00,78.1,46.5,29.69,North,0,0.0,0.0,33,0.00,,,0.01,WUHU216HW,2013-05-16 00:20:00,
2013-05-15 19:25:00,77.8,46.3,29.69,North,0,0.0,0.0,33,0.00,,,0.01,WUHU216HW,2013-05-16 00:25:00,
2013-05-15 19:30:00,77.0,45.6,29.69,North,0,0.0,0.0,33,0.00,,,0.01,WUHU216HW,2013-05-16 00:30:00,
2013-05-15 19:35:00,77.0,45.6,29.69,North,0,0.0,0.0,33,0.00,,,0.01,WUHU216HW,2013-05-16 00:35:00,
2013-05-15 19:40:00,77.0,45.6,29.69,North,0,0.0,0.0,33,0.00,,,0.01,WUHU216HW,2013-05-16 00:40:00,
2013-05-15 19:45:00,77.0,45.6,29.69,North,0,0.0,0.0,33,0.00,,,0.01,WUHU216HW,2013-05-16 00:45:00,
2013-05-15 19:50:00,76.7,45.4,29.70,North,0,0.0,0.0,33,0.00,,,0.01,WUHU216HW,2013-05-16 00:50:00,
2013-05-15 19:55:00,76.1,45.6,29.69,North,0,0.0,0.0,34,0.00,,,0.01,WUHU216HW,2013-05-16 00:55:00,
2013-05-15 20:00:00,76.5,45.9,29.69,North,0,0.0,0.0,34,0.00,,,0.01,WUHU216HW,2013-05-16 01:00:00,
2013-05-15 20:06:00,76.5,45.9,29.69,North,0,0.0,0.0,34,0.00,,,0.01,WUHU216HW,2013-05-16 01:06:00,
2013-05-15 20:11:00,75.6,45.9,29.69,North,0,0.0,0.0,35,0.00,,,0.01,WUHU216HW,2013-05-16 01:11:00,
2013-05-15 20:17:00,74.7,45.1,29.69,North,0,0.0,0.0,35,0.00,,,0.01,WUHU216HW,2013-05-16 01:17:00,
2013-05-15 20:22:00,74.5,45.6,29.69,North,0,0.0,0.0,36,0.00,,,0.01,WUHU216HW,2013-05-16 01:22:00,
2013-05-15 20:27:00,74.3,45.5,29.69,North,0,0.0,0.0,36,0.00,,,0.01,WUHU216HW,2013-05-16 01:27:00,
2013-05-15 20:33:00,74.2,45.4,29.70,North,0,0.0,0.0,36,0.00,,,0.01,WUHU216HW,2013-05-16 01:33:00,
2013-05-15 20:38:00,74.0,45.9,29.69,North,0,0.0,0.0,37,0.00,,,0.01,WUHU216HW,2013-05-16 01:38:00,
2013-05-15 20:43:00,73.6,45.6,29.69,North,0,0.0,0.0,37,0.00,,,0.01,WUHU216HW,2013-05-16 01:43:00,
2013-05-15 20:48:00,73.4,45.5,29.70,North,0,0.0,0.0,37,0.00,,,0.01,WUHU216HW,2013-05-16 01:48:00,
2013-05-15 20:53:00,73.3,46.0,29.69,North,0,0.0,0.0,38,0.00,,,0.01,WUHU216HW,2013-05-16 01:53:00,
2013-05-15 20:58:00,72.9,45.7,29.70,North,0,0.0,0.0,38,0.00,,,0.01,WUHU216HW,2013-05-16 01:58:00,
2013-05-15 21:03:00,73.1,45.9,29.70,SSE,158,0.2,0.2,38,0.00,,,0.01,WUHU216HW,2013-05-16 02:03:00,
2013-05-15 21:09:00,73.1,45.9,29.70,SW,225,1.1,1.1,38,0.00,,,0.01,WUHU216HW,2013-05-16 02:09:00,
2013-05-15 21:14:00,72.9,46.4,29.70,SW,225,0.0,1.1,39,0.00,,,0.01,WUHU216HW,2013-05-16 02:14:00,
2013-05-15 21:19:00,72.5,46.2,29.70,North,0,0.0,0.0,39,0.00,,,0.01,WUHU216HW,2013-05-16 02:19:00,
2013-05-15 21:24:00,72.4,46.7,29.70,ESE,113,3.1,3.1,40,0.00,,,0.01,WUHU216HW,2013-05-16 02:24:00,
2013-05-15 21:29:00,72.0,46.5,29.70,North,0,0.0,3.1,40,0.00,,,0.01,WUHU216HW,2013-05-16 02:29:00,
2013-05-15 21:34:00,70.9,47.3,29.70,North,0,0.0,3.1,43,0.00,,,0.01,WUHU216HW,2013-05-16 02:34:00,
2013-05-15 21:39:00,69.8,46.8,29.70,North,0,0.0,0.0,44,0.00,,,0.01,WUHU216HW,2013-05-16 02:39:00,
2013-05-15 21:44:00,69.5,46.5,29.70,North,0,0.0,0.0,44,0.00,,,0.01,WUHU216HW,2013-05-16 02:44:00,
2013-05-15 21:50:00,69.3,47.0,29.70,North,0,0.0,0.0,45,0.00,,,0.01,WUHU216HW,2013-05-16 02:50:00,
2013-05-15 21:55:00,69.1,46.8,29.70,North,0,0.0,0.0,45,0.00,,,0.01,WUHU216HW,2013-05-16 02:55:00,
2013-05-15 22:00:00,68.8,45.9,29.70,North,0,0.0,0.0,44,0.00,,,0.01,WUHU216HW,2013-05-16 03:00:00,
2013-05-15 22:05:00,68.6,46.3,29.70,North,0,0.0,0.0,45,0.00,,,0.01,WUHU216HW,2013-05-16 03:05:00,
2013-05-15 22:10:00,68.0,46.5,29.70,North,0,0.0,0.0,46,0.00,,,0.01,WUHU216HW,2013-05-16 03:10:00,
2013-05-15 22:15:00,67.9,46.3,29.70,North,0,0.0,0.0,46,0.00,,,0.01,WUHU216HW,2013-05-16 03:15:00,
2013-05-15 22:20:00,67.7,46.1,29.70,North,0,0.0,0.0,46,0.00,,,0.01,WUHU216HW,2013-05-16 03:20:00,
2013-05-15 22:25:00,67.5,46.5,29.70,North,0,0.0,0.0,47,0.00,,,0.01,WUHU216HW,2013-05-16 03:25:00,
2013-05-15 22:30:00,67.1,47.3,29.70,North,0,0.0,0.0,49,0.00,,,0.01,WUHU216HW,2013-05-16 03:30:00,
2013-05-15 22:35:00,67.0,46.6,29.70,North,0,0.0,0.0,48,0.00,,,0.01,WUHU216HW,2013-05-16 03:35:00,
2013-05-15 22:40:00,66.6,46.9,29.70,North,0,0.0,0.0,49,0.00,,,0.01,WUHU216HW,2013-05-16 03:40:00,
2013-05-15 22:45:00,66.1,47.0,29.70,North,0,0.0,0.0,50,0.00,,,0.01,WUHU216HW,2013-05-16 03:45:00,
2013-05-15 22:50:00,65.9,47.3,29.70,North,0,0.0,0.0,51,0.00,,,0.01,WUHU216HW,2013-05-16 03:50:00,
2013-05-15 22:55:00,65.9,47.3,29.70,North,0,0.0,0.0,51,0.00,,,0.01,WUHU216HW,2013-05-16 03:55:00,
2013-05-15 23:01:00,65.5,46.9,29.70,North,0,0.0,0.0,51,0.00,,,0.01,WUHU216HW,2013-05-16 04:01:00,
2013-05-15 23:06:00,65.0,46.9,29.70,North,0,0.0,0.0,52,0.00,,,0.01,WUHU216HW,2013-05-16 04:06:00,
2013-05-15 23:11:00,64.6,46.0,29.70,North,0,0.0,0.0,51,0.00,,,0.01,WUHU216HW,2013-05-16 04:11:00,
2013-05-15 23:16:00,64.3,46.2,29.70,North,0,0.0,0.0,52,0.00,,,0.01,WUHU216HW,2013-05-16 04:16:00,
2013-05-15 23:21:00,63.7,46.6,29.70,North,0,0.0,0.0,54,0.00,,,0.01,WUHU216HW,2013-05-16 04:21:00,
2013-05-15 23:26:00,63.4,46.4,29.70,North,0,0.0,0.0,54,0.00,,,0.01,WUHU216HW,2013-05-16 04:26:00,
2013-05-15 23:31:00,63.2,47.2,29.70,North,0,0.0,0.0,56,0.00,,,0.01,WUHU216HW,2013-05-16 04:31:00,
2013-05-15 23:36:00,63.0,47.0,29.70,North,0,0.0,0.0,56,0.00,,,0.01,WUHU216HW,2013-05-16 04:36:00,
2013-05-15 23:41:00,62.8,47.4,29.70,North,0,0.0,0.0,57,0.00,,,0.01,WUHU216HW,2013-05-16 04:41:00,
2013-05-15 23:46:00,62.5,47.0,29.70,North,0,0.0,0.0,57,0.00,,,0.01,WUHU216HW,2013-05-16 04:46:00,
2013-05-15 23:51:00,62.3,47.4,29.71,North,0,0.0,0.0,58,0.00,,,0.01,WUHU216HW,2013-05-16 04:51:00,
2013-05-15 23:56:00,62.1,46.6,29.71,North,0,0.0,0.0,57,0.00,,,0.01,WUHU216HW,2013-05-16 04:56:00,